Location: Grand Rapids
(42.9630°N, 85.6680°W)
Time: 15:48:04
(UTC-04:00)

Envisat - Pass Details

Date: 24 April 2024
Orbit: 762 x 764 km, 98.3° (Epoch: 20 May)

Event Time Altitude Azimuth Distance (km) Brightness Sun altitude
Rises 04:07:56 0° 25° (NNE) 3,236 7.5 -24.6°
Reaches altitude 10° 04:10:39 10° 39° (NE) 2,305 6.6 -24.3°
Maximum altitude 04:14:48 25° 94° (E) 1,511 4.9 -23.8°
Enters shadow 04:18:41 11° 147° (SSE) 2,218 5.2 -23.3°
